Weather History for Khon Kaen, Thailand

Change the Weather History Date:

Wednesday, May 15, 2013

  Actual Average Record
Temperature  
Mean Temperature 92 °F -  
Max Temperature 104 °F 93 °F - ()
Min Temperature 81 °F 77 °F - ()
Cooling Degree Days 28    
Growing Degree Days 42 (Base 50)    
Moisture  
Dew Point 75 °F    
Average Humidity 59    
Maximum Humidity 100    
Minimum Humidity 26    
Precipitation  
Precipitation 0.00 in 0.23 in - ()
Sea Level Pressure  
Sea Level Pressure 29.65 in    
Wind  
Wind Speed 3 mph ()    
Max Wind Speed 10 mph    
Max Gust Speed -    
Visibility 6.1 miles    
Events      
T = Trace of Precipitation, MM = Missing Value Source: Averaged Metar Reports

Daily Weather History Graph

Daily Weather History Graph

Search for Another Location

Airport:

Trip Planner

Search our weather history database for the weather conditions in past years. The results will help you decide how hot, cold, wet, or windy it might be!

Date:

Astronomy

May. 15, 2013 Rise Set
Actual Time 5:38 AM ICT 6:32 PM ICT
Civil Twilight 5:15 AM ICT 6:55 PM ICT
Nautical Twilight 4:48 AM ICT 7:22 PM ICT
Astronomical Twilight 4:20 AM ICT 7:50 PM ICT
Moon 9:40 AM ICT (5/15) 10:43 PM ICT (5/15)
Length of Visible Light 13h 39m
Length of Day
12h 53m
Waxing Crescent, 23% of the Moon is Illuminated
May 15
Waxing Crescent
May 18
First Quarter
May 25
Full
Jun 1
Last Quarter
Jun 8
New

Hourly Weather History & Observations

Time (ICT) Temp. Heat Index Dew Point Humidity Pressure Visibility Wind Dir Wind Speed Gust Speed Precip Events Conditions
1:00 AM 85 °F - 76 °F 69% 29.67 in 6 mi Calm Calm - -   Scattered Clouds
4:00 AM 80.6 °F 88.1 °F 78.8 °F 94% 29.65 in 6.2 mi Calm Calm - N/A   Mostly Cloudy
6:00 AM 80.6 °F 89.3 °F 80.6 °F 100% 29.68 in 5.0 mi Calm Calm - N/A   Mostly Cloudy
7:00 AM 83 °F - 78 °F 82% 29.69 in 6 mi Calm Calm - -   Mist
7:00 AM 82.4 °F 94.0 °F 80.6 °F 94% 29.71 in 5.6 mi Calm Calm - N/A   Mostly Cloudy
7:10 AM 84.2 °F 96.1 °F 78.8 °F 84% 29.71 in 6.2 mi Calm Calm - N/A   Mostly Cloudy
8:00 AM 84.2 °F 96.1 °F 78.8 °F 84% 29.71 in 6.2 mi Calm Calm - N/A   Mostly Cloudy
9:00 AM 87.8 °F 99.7 °F 77.0 °F 70% 29.74 in 6.2 mi South 3.5 mph - N/A   Mostly Cloudy
10:00 AM 91.4 °F 105.1 °F 77.0 °F 63% 29.74 in - SW 4.6 mph - N/A   Clear
11:00 AM 95.0 °F 107.4 °F 75.2 °F 53% 29.71 in 6.2 mi West 8.1 mph - N/A   Unknown
12:00 PM 96.8 °F 112.2 °F 77.0 °F 53% 29.68 in - SW 5.8 mph - N/A   Scattered Clouds
1:00 PM 101 °F - 69 °F 26% 29.63 in 7 mi SW 3.5 mph - -   Scattered Clouds
1:00 PM 98.6 °F 109.2 °F 73.4 °F 44% 29.65 in 6.2 mi WSW 10.4 mph - N/A   Partly Cloudy
2:00 PM 102.2 °F 114.4 °F 73.4 °F 40% 29.62 in 6.2 mi SSW 9.2 mph - N/A   Scattered Clouds
3:00 PM 102.2 °F 110.0 °F 69.8 °F 35% 29.59 in 6.2 mi ENE 8.1 mph - N/A   Scattered Clouds
4:00 PM 102.2 °F 111.7 °F 71.6 °F 37% 29.59 in 6.2 mi South 8.1 mph - N/A   Scattered Clouds
5:00 PM 102.2 °F 111.7 °F 71.6 °F 37% 29.56 in 6.2 mi SSW 4.6 mph - N/A   Partly Cloudy
6:00 PM 98.6 °F 107.7 °F 71.6 °F 42% 29.59 in 6.2 mi SW 8.1 mph - N/A   Partly Cloudy
7:00 PM 97 °F - 69 °F 31% 29.56 in 6 mi SW 2.3 mph - -   Scattered Clouds
7:00 PM 95.0 °F 103.2 °F 71.6 °F 47% 29.59 in 6.2 mi SW 4.6 mph - N/A   Partly Cloudy
8:00 PM 93.2 °F 102.4 °F 73.4 °F 52% 29.62 in 6.2 mi SSW 4.6 mph - N/A   Partly Cloudy